Location: G�rlitz
(51.1670°N, 15.0000°E)
Time: 20:06:17
(UTC+01:00)

Envisat - Pass Details

Date: 20 February 2026
Orbit: 761 x 763 km, 98.4° (Epoch: 11 March)

Event Time Altitude Azimuth Distance (km) Brightness Sun altitude
Rises 03:20:44 0° 11° (NNE) 3,237 6.7 -34.7°
Reaches altitude 10° 03:23:05 10° 8° (N) 2,307 5.8 -34.4°
Enters shadow 03:24:33 19° 3° (N) 1,748 5.1 -34.2°
